Wind_Speed
17 20 23 26 29 28 17 8 2 3 22 3 2 3 5 5 5 3 1 3 2 2 3 4 3 4 2 5 2 2 2 3 3 2 3 6 4 3 4 3 2 3 2 2
16 19 22 25 27 23 16 4 3 2 4 3 3 4 4 3 4 4 2 1 1 1 4 6 3 3 2 4 3 2 2 3 2 1 5 5 5 3 2 4 2 3 4 3
14 18 21 25 26 25 9 2 3 2 1 1 2 3 4 4 5 6 1 3 2 3 3 6 5 3 1 2 3 3 4 3 4 4 1 1 3 4 1 2 2 1 2 4
13 17 21 24 27 25 2 2 3 3 2 3 4 2 3 4 4 4 0 2 2 4 4 3 4 4 3 5 3 3 5 4 7 5 7 7 2 3 6 3 4 3 4 8
12 15 19 23 27 22 2 2 3 4 4 3 3 5 4 4 4 5 2 5 3 2 4 5 6 7 3 3 2 3 2 4 3 5 5 6 6 8 6 6 6 7 9 6
10 14 17 20 23 19 5 6 5 2 4 4 2 2 5 5 5 3 4 11 8 9 2 4 6 5 5 7 5 2 3 5 2 1 3 4 5 3 4 3 3 3 2 5
9 12 15 18 20 17 11 6 5 3 3 2 3 4 7 9 5 5 4 4 6 3 6 5 8 9 8 8 5 4 4 4 2 2 3 1 6 4 0 6 4 4 6 6
8 11 13 16 18 18 15 10 4 2 3 3 5 10 4 3 5 5 4 5 1 9 6 5 6 5 5 5 3 4 3 4 3 3 2 4 6 3 5 3 2 1 3 3
8 10 12 15 18 19 19 10 7 5 3 1 6 5 4 3 3 4 5 5 7 7 4 3 3 4 4 2 2 3 6 6 4 2 2 5 5 4 2 3 1 3 3 5
9 9 12 14 17 18 20 6 9 5 2 2 5 3 3 5 3 3 3 3 3 4 3 3 3 2 5 4 6 4 2 3 4 1 2 5 5 2 2 1 4 3 1 3
10 9 11 12 15 17 19 10 5 7 3 6 3 3 3 5 2 3 3 4 4 3 3 3 2 2 3 3 2 4 4 4 2 2 2 4 2 3 1 4 3 6 8 8
10 10 10 11 13 15 16 6 13 13 5 5 20 27 32 20 23 1 3 4 3 4 4 1 3 2 2 4 3 2 1 4 4 4 4 3 4 8 3 6 6 5 9 6
11 10 10 11 12 13 13 14 16 7 3 4 5 4 13 5 15 15 2 2 4 2 3 4 2 3 3 3 4 3 4 3 4 4 4 5 12 11 9 11 10 8 8 8
12 10 10 12 13 14 16 17 15 9 6 2 5 12 11 7 6 10 11 3 4 6 2 3 2 3 3 3 3 3 3 4 5 3 6 12 10 9 11 10 11 10 12 10
12 10 10 12 14 17 21 18 9 6 3 3 5 21 8 5 3 3 6 7 3 2 3 3 1 2 3 1 2 1 3 6 4 4 5 8 6 7 9 11 10 9 10 7
12 10 10 12 14 17 14 1 7 5 4 3 3 6 5 2 0 4 5 4 3 3 3 2 0 1 3 3 1 2 2 3 7 5 6 14 10 9 10 12 7 12 12 14
12 10 11 12 12 14 3 4 5 3 10 2 3 3 4 0 3 3 3 4 2 3 2 2 2 1 3 2 2 2 3 9 16 19 17 10 7 6 12 17 16 18 18 17
11 10 11 13 15 14 8 3 7 10 5 4 3 4 2 1 1 1 2 2 3 4 2 1 2 2 2 1 2 7 10 15 16 13 11 12 15 16 13 16 17 11 7 11
10 9 10 13 2 3 3 7 7 10 3 3 2 2 3 1 1 1 2 2 2 2 2 1 3 0 2 6 13 14 18 9 13 16 16 15 14 11 9 13 10 8 6 11
9 3 2 3 4 8 12 4 3 3 3 3 3 3 3 3 1 1 2 2 2 2 3 3 2 3 3 12 13 14 13 18 19 17 9 11 11 11 8 7 11 11 12 14
5 3 3 5 10 3 3 3 3 3 3 4 4 4 2 2 3 3 2 3 2 3 4 5 2 2 4 8 12 11 23 26 22 24 22 21 19 12 10 11 15 15 16 15
8 3 3 5 2 2 3 3 3 5 5 4 4 5 4 2 3 3 2 3 2 4 3 3 3 4 8 14 14 14 19 19 19 24 21 21 21 22 21 20 19 18 19 17
4 2 3 1 2 5 5 6 3 3 3 4 3 3 4 1 2 2 2 3 4 3 1 4 4 6 15 16 15 13 21 24 23 19 25 24 24 27 28 24 22 22 19 17
2 3 1 4 4 5 2 1 1 3 3 5 3 3 3 2 3 3 3 2 4 2 2 6 3 15 18 16 15 15 16 22 23 22 24 25 25 25 26 24 24 23 20 17
2 3 4 5 4 3 4 4 4 3 5 5 3 1 3 2 3 3 3 3 4 6 5 4 8 18 18 18 17 17 16 20 22 24 23 24 28 26 24 23 22 21 20 20
3 4 4 4 3 3 2 1 5 4 8 7 2 4 4 4 4 3 6 6 6 4 4 3 14 20 19 18 17 22 26 26 25 26 26 27 28 28 27 23 22 23 21 22
3 4 3 4 5 5 4 1 3 10 7 3 3 5 7 3 4 3 5 5 4 4 3 8 18 21 21 19 23 26 28 26 27 26 26 27 31 29 27 23 23 22 20 19
Wind_Direction
342 345 348 352 356 355 3 345 303 126 149 105 216 194 211 289 289 317 308 95 86 108 80 77 88 114 54 341 349 55 15 127 60 66 79 43 91 135 119 123 336 237 240 274
340 344 347 351 355 1 335 311 265 260 215 168 245 269 269 282 315 307 2 118 158 84 128 99 98 102 352 12 70 81 10 13 77 7 351 354 49 1 87 86 64 264 144 277
337 342 346 349 349 350 330 280 315 279 177 129 204 245 256 245 253 251 228 138 82 88 70 36 138 123 141 39 64 65 94 49 133 168 129 191 5 348 315 111 97 254 7 75
334 339 345 349 348 348 250 201 262 340 255 273 230 323 298 269 245 221 206 77 57 142 124 102 107 101 108 36 27 69 88 74 89 80 87 70 31 15 1 208 230 104 100 78
330 336 346 352 352 355 298 315 324 340 293 294 210 181 257 249 217 175 168 114 16 87 135 166 176 128 117 163 22 80 51 137 98 56 54 57 46 21 36 46 76 96 100 76
323 333 345 354 357 11 340 332 305 263 283 328 200 209 265 262 354 18 158 142 100 62 37 112 114 106 122 147 134 117 95 148 113 93 312 338 10 310 338 70 47 116 97 192
314 328 342 351 356 8 337 307 299 285 288 2 341 311 322 275 269 170 133 72 98 138 126 100 50 52 72 82 44 137 129 100 81 111 1 344 237 291 231 107 54 73 107 152
302 322 335 344 350 354 346 306 296 298 290 318 308 320 269 294 63 66 79 356 292 141 78 73 64 5 29 13 69 65 115 114 88 122 193 274 315 199 192 160 334 346 148 168
289 313 328 340 347 350 349 333 320 283 338 189 296 317 345 344 11 33 19 18 38 60 78 81 119 185 159 178 118 81 79 73 104 118 196 204 238 263 196 80 315 352 57 186
276 303 321 335 344 348 348 302 342 286 289 274 6 8 329 338 14 95 21 64 47 44 60 83 138 191 170 154 163 188 36 29 116 122 222 286 248 189 72 176 243 294 7 106
266 292 313 329 340 349 352 321 15 4 315 286 283 315 13 343 301 124 226 62 1 47 76 119 188 128 195 94 188 195 161 125 160 86 59 303 311 107 148 197 28 85 77 93
257 282 304 322 335 344 351 312 324 319 231 271 293 289 279 236 236 289 19 157 171 173 91 119 119 110 79 142 201 332 41 155 159 158 214 255 25 103 109 91 98 70 98 113
253 274 295 313 328 336 345 325 333 325 268 277 305 301 335 236 230 231 128 289 170 178 170 146 150 108 128 152 230 121 7 113 91 81 352 86 93 69 69 85 94 117 97 96
248 268 292 308 321 326 328 317 305 294 269 289 282 325 311 289 251 229 222 185 115 103 87 101 113 125 161 199 172 135 182 100 130 69 110 79 62 93 106 101 100 89 90 103
247 264 286 302 317 322 321 311 295 224 327 323 294 313 302 285 283 141 141 129 102 82 60 62 143 135 106 328 99 75 168 156 135 200 205 119 126 120 117 107 104 108 111 92
241 258 281 300 317 326 338 322 46 91 207 268 294 299 293 315 99 91 68 69 84 87 117 150 166 278 116 96 84 262 188 135 146 137 113 108 116 112 106 105 105 107 102 103
237 255 276 296 308 315 282 283 305 337 335 262 291 282 282 27 71 38 38 44 74 100 108 79 135 5 75 96 149 200 122 131 118 118 111 90 122 123 117 107 107 103 102 103
232 254 279 293 300 300 289 47 19 253 263 269 268 266 320 158 64 56 356 61 29 18 135 75 107 10 61 101 123 115 122 121 119 117 117 126 121 118 111 118 112 98 92 101
225 255 290 295 273 257 253 321 323 204 245 296 283 206 221 27 75 96 33 66 64 305 108 201 95 291 204 172 142 144 138 132 125 119 121 124 125 124 122 116 105 108 105 104
215 251 284 310 230 308 313 135 205 179 203 218 256 286 256 121 120 33 92 14 149 150 245 101 110 226 306 147 153 147 126 127 125 122 126 130 131 139 137 126 134 136 125 118
177 199 229 285 304 300 229 241 210 166 213 209 230 218 219 237 125 171 193 174 153 151 239 140 200 268 182 147 148 149 142 150 156 154 152 152 150 144 133 127 137 137 135 128
182 192 292 318 315 238 248 223 193 207 220 198 202 208 198 215 129 114 218 155 112 220 148 105 214 230 152 154 155 147 143 138 138 143 140 146 140 145 142 142 141 136 132 134
137 74 36 3 278 243 226 181 218 201 219 212 190 156 159 104 64 92 135 144 202 103 101 217 222 163 156 158 151 141 147 145 140 140 145 142 143 151 150 150 149 141 131 128
113 125 315 203 238 238 223 256 264 307 308 324 197 147 175 162 129 161 152 184 113 164 219 228 196 167 159 158 150 145 148 149 143 148 146 143 148 152 158 160 161 159 154 148
153 161 226 227 249 294 324 319 303 293 276 312 301 129 130 146 155 191 117 130 226 208 224 220 170 163 158 157 155 153 153 151 149 153 148 147 150 153 158 162 160 162 162 164
192 224 245 252 302 289 329 344 306 333 339 305 223 224 148 188 158 147 203 164 221 241 212 182 157 160 161 160 159 158 156 155 155 154 152 150 154 160 163 164 168 170 167 167
214 233 228 258 279 253 266 239 331 334 316 255 186 203 190 117 157 203 177 200 217 217 201 164 165 166 164 157 157 155 154 153 154 148 152 153 164 164 161 161 171 173 176 174
Height
851 846 842 837 832 823 818 817 814 796 796 807 809 805 792 776 766 757 756 759 764 769 773 785 796 801 798 794 793 798 800 808 819 810 805 803 804 814 828 845 830 841 849 838
850 846 842 837 833 829 825 820 814 797 796 809 810 794 785 776 771 764 760 763 761 763 777 794 796 799 793 793 796 802 801 815 828 817 818 811 816 814 817 831 839 839 828 824
849 846 842 837 833 828 826 822 818 797 794 798 796 790 785 780 764 768 758 761 761 768 777 785 798 799 794 792 796 799 802 818 819 833 825 824 826 824 819 827 852 834 833 825
848 845 842 837 832 825 824 820 814 801 792 797 795 790 787 780 774 761 757 763 767 771 785 786 797 796 797 795 798 801 808 826 823 825 824 826 830 830 823 821 821 831 830 829
847 845 841 837 831 824 821 816 811 807 801 795 794 793 787 776 766 765 765 772 777 773 781 782 793 794 798 801 801 803 812 830 825 832 828 831 831 829 825 824 822 826 824 830
847 844 841 838 834 828 823 819 816 814 797 795 793 791 782 771 767 766 763 772 781 786 782 781 784 786 794 798 804 809 814 824 829 833 831 833 845 834 827 822 821 822 830 830
846 844 841 839 836 833 832 826 822 812 798 798 796 787 786 778 768 768 772 772 776 782 781 783 787 794 799 801 804 805 816 823 832 849 842 867 837 826 822 828 827 826 829 829
845 843 841 839 836 833 830 825 823 814 804 800 793 788 784 771 769 773 775 776 775 776 783 799 807 815 809 804 801 806 808 822 840 856 870 852 829 820 824 824 832 827 829 831
843 842 840 838 835 832 828 822 822 818 812 798 799 791 787 785 779 779 780 777 777 780 795 802 813 824 814 816 809 810 814 819 837 859 841 872 838 820 815 821 839 825 825 829
842 841 840 838 835 832 828 824 822 818 811 801 801 795 796 791 787 791 786 782 784 787 803 808 814 817 809 819 819 816 824 836 844 874 854 848 822 816 818 832 846 827 826 830
840 840 839 837 835 833 829 825 822 821 815 804 800 798 798 797 792 791 788 791 793 801 804 808 814 814 815 817 814 815 821 833 854 858 855 856 818 817 824 832 830 833 837 840
838 839 838 837 835 833 830 826 823 819 818 807 799 792 787 791 789 790 792 791 794 796 807 813 816 813 822 823 829 813 825 823 841 843 844 826 821 824 824 827 835 840 841 844
836 837 837 836 835 833 831 827 823 819 814 804 798 788 784 783 784 786 790 791 788 791 791 804 809 806 823 823 825 818 819 818 830 833 828 827 827 830 833 834 839 840 842 846
835 836 835 834 833 832 830 827 824 823 818 808 794 786 783 782 781 782 782 782 783 786 791 800 806 808 812 819 814 820 821 819 829 835 831 830 835 837 837 840 842 847 849 851
833 834 835 834 832 829 826 821 819 820 823 813 801 789 780 779 780 780 780 780 783 789 794 800 803 809 811 818 816 819 816 823 833 838 829 830 841 843 843 845 849 851 852 855
832 833 833 832 830 828 824 821 820 822 822 818 805 791 782 779 780 780 781 781 785 790 795 803 804 802 809 815 818 810 810 814 815 826 826 832 841 845 847 848 851 854 856 858
831 832 832 831 830 829 829 828 825 821 821 817 806 796 782 780 781 783 784 784 788 790 799 801 804 804 805 814 823 808 810 813 817 821 829 842 843 849 850 851 855 858 860 861
830 831 831 829 828 825 822 821 820 821 822 816 807 796 788 781 787 788 788 790 791 795 800 803 804 806 807 810 811 811 813 816 821 827 829 836 845 850 854 856 859 861 863 864
830 831 830 827 825 824 820 819 818 818 821 812 803 794 795 782 788 789 790 791 797 800 799 800 803 811 807 804 808 812 813 818 827 832 836 843 847 853 856 859 862 863 866 866
829 831 830 828 822 821 820 818 816 816 814 813 804 796 791 785 790 793 794 798 801 802 800 801 804 806 801 801 804 809 814 820 826 837 845 847 851 853 858 861 862 864 866 868
829 829 828 823 821 820 817 812 810 809 806 804 795 791 787 784 787 790 793 799 801 801 799 801 808 814 801 803 807 809 813 818 821 825 834 840 844 852 857 862 864 865 868 869
825 826 825 823 822 819 815 807 802 798 794 789 787 783 784 782 781 785 793 790 796 793 799 805 812 798 795 799 805 810 814 820 825 830 837 841 847 852 856 861 865 866 869 871
825 826 828 826 825 816 801 798 793 791 787 779 778 777 777 780 781 786 786 784 795 794 797 797 795 787 789 795 802 809 814 819 826 833 836 842 848 852 856 862 866 868 871 873
825 832 843 825 821 806 793 788 786 786 782 777 772 772 773 777 780 786 779 784 788 792 800 786 784 778 784 791 798 806 813 818 826 832 837 843 848 854 859 863 865 868 871 874
824 823 831 814 805 798 797 797 793 788 781 778 772 770 770 774 774 781 782 783 782 785 780 776 768 772 779 788 796 803 811 818 825 830 837 843 849 855 860 864 866 868 870 873
820 819 814 807 807 800 797 798 794 788 786 779 773 764 766 765 771 772 772 776 773 765 764 761 760 767 776 784 792 800 807 815 822 829 836 843 850 854 858 862 865 867 870 871
815 810 808 809 806 802 796 793 792 793 790 776 769 762 755 764 765 769 769 768 758 755 754 752 754 761 770 779 790 798 806 814 822 829 837 843 849 854 858 861 865 868 871 873